Location: Sabalos
(43.2860°N, 0.1414°E)
Time: 04:12:54
(UTC+00:00)

Cosmos 1842 Rocket - Pass Details

Date: 05 July 2020
Orbit: 604 x 635 km, 82.5° (Epoch: 06 August)

Event Time Altitude Azimuth Distance (km) Brightness Sun altitude
Rises 21:40:59 0° 356° (N) 2,883 8.0 -16.3°
Reaches altitude 10° 21:43:17 10° 2° (N) 1,970 6.9 -16.5°
Maximum altitude 21:47:31 49° 78° (ENE) 786 3.9 -16.9°
Enters shadow 21:49:03 33° 132° (SE) 1,020 4.1 -17.1°
